BEE9LA EICK-EGFF

Flight info

Callsign BEE9LA
Flight time 0h 46m
Altitude 21000
Route ELTIG1T ELTIG DCT EVRIN DCT OGPUV
Aircraft DH8D/M-SDE2E3FGRY/H

Departure

Time 2026-04-27 15:33
Airport Cork International Airport (EICK)

Arrival

Time 2026-04-27 16:20
Airport Cardiff International Airport (EGFF)
Time Latitude Longitude Altitude Speed Heading
2026-04-27 15:15 51.84629 -8.49043 504 ft 0 kts 161°
2026-04-27 15:28 51.84610 -8.49055 502 ft 7 kts 235°
2026-04-27 15:29 51.84565 -8.49087 499 ft 8 kts 158°
2026-04-27 15:29 51.84504 -8.49050 497 ft 9 kts 159°
2026-04-27 15:29 51.84437 -8.49010 495 ft 10 kts 160°
2026-04-27 15:29 51.84366 -8.48980 493 ft 10 kts 197°
2026-04-27 15:30 51.84320 -8.49099 489 ft 17 kts 242°
2026-04-27 15:30 51.84230 -8.49181 484 ft 16 kts 151°
2026-04-27 15:30 51.84099 -8.49082 479 ft 20 kts 158°
2026-04-27 15:30 51.83973 -8.48998 475 ft 18 kts 159°
2026-04-27 15:31 51.83833 -8.48912 472 ft 22 kts 160°
2026-04-27 15:31 51.83695 -8.48830 469 ft 22 kts 160°
2026-04-27 15:31 51.83540 -8.48743 469 ft 21 kts 161°
2026-04-27 15:31 51.83412 -8.48670 469 ft 20 kts 161°
2026-04-27 15:32 51.83297 -8.48573 468 ft 17 kts 123°
2026-04-27 15:32 51.83242 -8.48571 467 ft 11 kts 276°
2026-04-27 15:32 51.83255 -8.48596 467 ft 0 kts 336°
2026-04-27 15:33 51.83452 -8.48712 469 ft 77 kts 340°
2026-04-27 15:33 51.84218 -8.49156 521 ft 143 kts 341°
2026-04-27 15:33 51.85201 -8.49695 1002 ft 157 kts 344°
2026-04-27 15:33 51.86303 -8.50137 1545 ft 172 kts 359°
2026-04-27 15:34 51.87338 -8.49321 2079 ft 177 kts 55°
2026-04-27 15:34 51.87599 -8.47315 2589 ft 190 kts 89°
2026-04-27 15:34 51.87529 -8.45220 3307 ft 189 kts 89°
2026-04-27 15:34 51.87477 -8.43081 3983 ft 191 kts 88°
2026-04-27 15:35 51.87444 -8.40948 4653 ft 193 kts 87°
2026-04-27 15:35 51.87426 -8.38778 5354 ft 195 kts 87°
2026-04-27 15:35 51.87419 -8.36582 6031 ft 197 kts 86°
2026-04-27 15:35 51.87421 -8.34384 6691 ft 200 kts 86°
2026-04-27 15:36 51.87430 -8.32123 7383 ft 201 kts 85°
2026-04-27 15:36 51.87443 -8.29876 8033 ft 203 kts 85°
2026-04-27 15:36 51.87460 -8.27610 8682 ft 205 kts 85°
2026-04-27 15:36 51.87479 -8.25285 9323 ft 205 kts 84°
2026-04-27 15:37 51.87500 -8.22978 9917 ft 210 kts 84°
2026-04-27 15:37 51.87522 -8.20622 10588 ft 211 kts 84°
2026-04-27 15:37 51.87548 -8.18164 10892 ft 231 kts 84°
2026-04-27 15:37 51.87584 -8.15465 11155 ft 248 kts 84°
2026-04-27 15:38 51.87614 -8.12647 11697 ft 252 kts 84°
2026-04-27 15:38 51.87642 -8.09828 12237 ft 255 kts 84°
2026-04-27 15:38 51.87669 -8.06948 12772 ft 257 kts 84°
2026-04-27 15:38 51.87696 -8.04039 13254 ft 260 kts 85°
2026-04-27 15:39 51.87724 -8.01118 13773 ft 263 kts 84°
2026-04-27 15:39 51.87751 -7.98137 14295 ft 264 kts 84°
2026-04-27 15:39 51.87777 -7.95192 14804 ft 265 kts 84°
2026-04-27 15:39 51.87803 -7.92187 15251 ft 268 kts 84°
2026-04-27 15:40 51.87828 -7.89166 15767 ft 267 kts 83°
2026-04-27 15:40 51.87854 -7.86141 16152 ft 271 kts 83°
2026-04-27 15:40 51.87878 -7.83101 16584 ft 273 kts 83°
2026-04-27 15:40 51.87935 -7.80032 17001 ft 273 kts 80°
2026-04-27 15:41 51.88089 -7.76965 17422 ft 274 kts 79°
2026-04-27 15:41 51.88259 -7.73864 17800 ft 276 kts 78°
2026-04-27 15:41 51.88427 -7.70771 18136 ft 279 kts 78°
2026-04-27 15:41 51.88597 -7.67609 18468 ft 282 kts 78°
2026-04-27 15:42 51.88763 -7.64473 18876 ft 281 kts 78°
2026-04-27 15:42 51.88931 -7.61287 19212 ft 284 kts 78°
2026-04-27 15:42 51.89096 -7.58114 19593 ft 284 kts 78°
2026-04-27 15:42 51.89260 -7.54954 19937 ft 285 kts 78°
2026-04-27 15:43 51.89425 -7.51739 20202 ft 288 kts 78°
2026-04-27 15:43 51.89589 -7.48495 20581 ft 287 kts 78°
2026-04-27 15:43 51.89753 -7.45290 20847 ft 288 kts 78°
2026-04-27 15:43 51.89917 -7.42038 21078 ft 290 kts 78°
2026-04-27 15:44 51.90082 -7.38783 21278 ft 294 kts 78°
2026-04-27 15:44 51.90252 -7.35450 21337 ft 302 kts 78°
2026-04-27 15:44 51.90424 -7.32035 21347 ft 310 kts 79°
2026-04-27 15:44 51.90599 -7.28502 21350 ft 317 kts 79°
2026-04-27 15:45 51.90776 -7.24909 21352 ft 322 kts 79°
2026-04-27 15:45 51.90953 -7.21262 21345 ft 328 kts 79°
2026-04-27 15:45 51.91130 -7.17577 21338 ft 331 kts 79°
2026-04-27 15:45 51.91309 -7.13824 21341 ft 333 kts 79°
2026-04-27 15:46 51.91486 -7.10091 21350 ft 336 kts 79°
2026-04-27 15:46 51.91664 -7.06305 21340 ft 338 kts 79°
2026-04-27 15:46 51.91843 -7.02470 21341 ft 339 kts 79°
2026-04-27 15:46 51.92019 -6.98682 21341 ft 340 kts 79°
2026-04-27 15:47 51.92197 -6.94822 21343 ft 341 kts 79°
2026-04-27 15:47 51.92372 -6.90998 21344 ft 342 kts 79°
2026-04-27 15:47 51.92546 -6.87194 21336 ft 343 kts 80°
2026-04-27 15:47 51.92721 -6.83309 21335 ft 343 kts 79°
2026-04-27 15:48 51.92895 -6.79437 21337 ft 343 kts 79°
2026-04-27 15:48 51.93067 -6.75589 21333 ft 344 kts 79°
2026-04-27 15:48 51.93237 -6.71731 21335 ft 344 kts 79°
2026-04-27 15:49 51.93577 -6.63995 21334 ft 345 kts 79°
2026-04-27 15:49 51.93744 -6.60132 21331 ft 345 kts 80°
2026-04-27 15:49 51.93912 -6.56227 21330 ft 345 kts 79°
2026-04-27 15:49 51.94076 -6.52361 21330 ft 345 kts 79°
2026-04-27 15:50 51.94242 -6.48451 21327 ft 345 kts 79°
2026-04-27 15:50 51.94404 -6.44580 21327 ft 345 kts 79°
2026-04-27 15:50 51.94566 -6.40701 21324 ft 345 kts 79°
2026-04-27 15:50 51.94728 -6.36799 21322 ft 346 kts 79°
2026-04-27 15:51 51.94887 -6.32916 21326 ft 346 kts 80°
2026-04-27 15:51 51.95045 -6.29021 21326 ft 346 kts 80°
2026-04-27 15:51 51.95200 -6.25167 21327 ft 347 kts 81°
2026-04-27 15:51 51.95198 -6.21239 21333 ft 351 kts 86°
2026-04-27 15:52 51.95062 -6.17250 21323 ft 352 kts 87°
2026-04-27 15:52 51.94918 -6.13293 21323 ft 352 kts 87°
2026-04-27 15:52 51.94775 -6.09356 21325 ft 352 kts 87°
2026-04-27 15:52 51.94632 -6.05380 21320 ft 352 kts 87°
2026-04-27 15:53 51.94487 -6.01390 21318 ft 352 kts 87°
2026-04-27 15:53 51.94343 -5.97446 21327 ft 352 kts 87°
2026-04-27 15:53 51.94199 -5.93471 21328 ft 352 kts 87°
2026-04-27 15:53 51.94053 -5.89506 21328 ft 353 kts 87°
2026-04-27 15:54 51.93906 -5.85520 21331 ft 352 kts 87°
2026-04-27 15:54 51.93760 -5.81574 21332 ft 353 kts 87°
2026-04-27 15:54 51.93611 -5.77609 21331 ft 353 kts 87°
2026-04-27 15:54 51.93462 -5.73640 21327 ft 353 kts 87°
2026-04-27 15:55 51.93311 -5.69669 21328 ft 354 kts 87°
2026-04-27 15:55 51.93210 -5.67032 21332 ft 354 kts 87°
2026-04-27 15:55 51.93005 -5.61724 21319 ft 354 kts 87°
2026-04-27 15:55 51.92850 -5.57736 21319 ft 355 kts 86°
2026-04-27 15:56 51.92692 -5.53719 21319 ft 355 kts 87°
2026-04-27 15:56 51.92533 -5.49720 21319 ft 355 kts 87°
2026-04-27 15:56 51.92376 -5.45770 21314 ft 355 kts 87°
2026-04-27 15:56 51.92213 -5.41757 21316 ft 355 kts 87°
2026-04-27 15:57 51.92051 -5.37782 21317 ft 355 kts 87°
2026-04-27 15:57 51.91887 -5.33775 21308 ft 356 kts 88°
2026-04-27 15:57 51.91720 -5.29747 21313 ft 355 kts 88°
2026-04-27 15:57 51.91555 -5.25793 21311 ft 355 kts 88°
2026-04-27 15:58 51.91316 -5.21794 21305 ft 358 kts 92°
2026-04-27 15:58 51.91066 -5.19454 21308 ft 359 kts 95°
2026-04-27 15:58 51.90608 -5.15559 21304 ft 357 kts 95°
2026-04-27 15:58 51.90148 -5.11676 21299 ft 356 kts 94°
2026-04-27 15:59 51.89681 -5.07742 21290 ft 354 kts 94°
2026-04-27 15:59 51.89256 -5.04157 21289 ft 351 kts 95°
2026-04-27 15:59 51.88839 -5.00631 21293 ft 353 kts 94°
2026-04-27 15:59 51.88377 -4.96723 21291 ft 354 kts 94°
2026-04-27 16:00 51.87926 -4.92921 21295 ft 354 kts 94°
2026-04-27 16:00 51.87610 -4.90261 21282 ft 353 kts 94°
2026-04-27 16:00 51.87007 -4.85198 21294 ft 354 kts 94°
2026-04-27 16:00 51.86633 -4.82059 21285 ft 353 kts 94°
2026-04-27 16:01 51.86194 -4.78394 21289 ft 353 kts 94°
2026-04-27 16:01 51.85857 -4.75587 21286 ft 354 kts 94°
2026-04-27 16:01 51.85383 -4.71641 21294 ft 356 kts 95°
2026-04-27 16:01 51.84913 -4.67734 21287 ft 356 kts 94°
2026-04-27 16:02 51.84436 -4.63789 21286 ft 357 kts 94°
2026-04-27 16:02 51.83962 -4.59874 21275 ft 358 kts 94°
2026-04-27 16:02 51.83479 -4.55901 21280 ft 358 kts 94°
2026-04-27 16:02 51.82998 -4.51950 21276 ft 359 kts 94°
2026-04-27 16:03 51.82519 -4.48033 21275 ft 360 kts 94°
2026-04-27 16:03 51.82027 -4.44023 21258 ft 357 kts 95°
2026-04-27 16:03 51.81560 -4.40251 21168 ft 336 kts 94°
2026-04-27 16:03 51.81110 -4.36625 21073 ft 318 kts 94°
2026-04-27 16:04 51.80687 -4.33195 20769 ft 311 kts 94°
2026-04-27 16:04 51.80263 -4.29720 20324 ft 313 kts 94°
2026-04-27 16:04 51.79879 -4.26309 20154 ft 307 kts 91°
2026-04-27 16:04 51.79640 -4.22904 19949 ft 303 kts 89°
2026-04-27 16:05 51.79426 -4.19533 19621 ft 304 kts 89°
2026-04-27 16:05 51.79205 -4.16148 19422 ft 302 kts 89°
2026-04-27 16:05 51.78979 -4.12784 19174 ft 303 kts 89°
2026-04-27 16:05 51.78750 -4.09433 18984 ft 301 kts 89°
2026-04-27 16:06 51.78518 -4.06077 18761 ft 300 kts 89°
2026-04-27 16:06 51.78284 -4.02753 18550 ft 299 kts 90°
2026-04-27 16:06 51.78047 -3.99422 18344 ft 295 kts 90°
2026-04-27 16:06 51.77807 -3.96042 18298 ft 310 kts 90°
2026-04-27 16:07 51.77554 -3.92510 18287 ft 323 kts 90°
2026-04-27 16:07 51.77289 -3.88871 18276 ft 332 kts 91°
2026-04-27 16:07 51.77015 -3.85138 18274 ft 340 kts 91°
2026-04-27 16:07 51.76729 -3.81266 18274 ft 347 kts 91°
2026-04-27 16:08 51.76442 -3.77392 18268 ft 353 kts 91°
2026-04-27 16:08 51.76144 -3.73416 18264 ft 357 kts 91°
2026-04-27 16:08 51.75849 -3.69530 18194 ft 342 kts 91°
2026-04-27 16:08 51.75569 -3.65842 18131 ft 324 kts 91°
2026-04-27 16:09 51.75300 -3.62305 18064 ft 309 kts 91°
2026-04-27 16:09 51.74794 -3.55578 17541 ft 297 kts 91°
2026-04-27 16:09 51.74549 -3.52308 17020 ft 295 kts 91°
2026-04-27 16:10 51.74052 -3.45738 16130 ft 294 kts 91°
2026-04-27 16:10 51.73551 -3.39241 15369 ft 291 kts 92°
2026-04-27 16:11 51.72968 -3.36088 14967 ft 297 kts 115°
2026-04-27 16:11 51.70018 -3.31922 14199 ft 295 kts 150°
2026-04-27 16:12 51.66560 -3.28791 13310 ft 291 kts 151°
2026-04-27 16:12 51.64843 -3.27248 12840 ft 287 kts 151°
2026-04-27 16:12 51.62244 -3.24931 12097 ft 284 kts 151°
2026-04-27 16:13 51.60686 -3.23542 11664 ft 282 kts 151°
2026-04-27 16:13 51.57227 -3.21497 10741 ft 271 kts 169°
2026-04-27 16:13 51.55757 -3.21035 10247 ft 271 kts 170°
2026-04-27 16:14 51.52321 -3.19977 9200 ft 266 kts 170°
2026-04-27 16:14 51.49282 -3.19057 8342 ft 262 kts 170°
2026-04-27 16:15 51.46016 -3.18100 7368 ft 256 kts 170°
2026-04-27 16:15 51.42857 -3.17202 6275 ft 253 kts 170°
2026-04-27 16:16 51.39467 -3.16265 5276 ft 248 kts 170°
2026-04-27 16:16 51.36102 -3.16284 4239 ft 244 kts 199°
2026-04-27 16:17 51.33294 -3.18935 3174 ft 239 kts 242°
2026-04-27 16:17 51.33677 -3.23842 1705 ft 242 kts 316°
2026-04-27 16:18 51.36512 -3.25733 1165 ft 212 kts 341°
2026-04-27 16:18 51.38168 -3.28519 784 ft 168 kts 281°
2026-04-27 16:19 51.38432 -3.30274 630 ft 156 kts 290°
2026-04-27 16:19 51.38851 -3.31818 440 ft 144 kts 296°
2026-04-27 16:20 51.39773 -3.34676 229 ft 20 kts 297°
2026-04-27 16:20 51.39830 -3.34734 229 ft 6 kts 26°
2026-04-27 16:20 51.39874 -3.34698 229 ft 10 kts 28°
2026-04-27 16:21 51.39928 -3.34622 229 ft 6 kts 86°
2026-04-27 16:21 51.39902 -3.34509 229 ft 4 kts 118°
2026-04-27 16:22 51.39874 -3.34424 229 ft 12 kts 118°
2026-04-27 16:22 51.39810 -3.34224 229 ft 10 kts 118°
2026-04-27 16:22 51.39792 -3.34155 229 ft 9 kts 98°
2026-04-27 16:23 51.39795 -3.34075 229 ft 7 kts 83°
2026-04-27 16:23 51.39805 -3.33945 229 ft 0 kts 83°
2026-04-27 16:23 51.39806 -3.33935 229 ft 0 kts 83°